Content
SEND FEEDBACK

Daily
Averages
Monthly
Summary
United Kingdom

LONDON, ENGLAND


Home > Europe > United Kingdom > England
Elevation: 203 feet     Latitude: 51 09N     Longitude: 000 11W

WEATHER
 
SELECT A DAY
Number of Records: 297,145;   Date Range: 7/1/96 - 10/20/14
 
SHARE

PRINT THIS DATA

[ ← Previous Day ]
WEATHER ALMANAC - SEPTEMBER 8, 2013
[ Next Day → ]
[ °C ]   °F
Weather ElementAverageHighLow
Temperature51.8 °F60.8 °F (10:50 am)42.8 °F (6:20 am)
Dewpoint47.1 °F50 °F (9:20 am)41 °F (6:20 am)
Humidity85.2 %100 % (4:50 am)55 % (2:20 pm)
Barometer30.06 in30.09 in (2:50 pm)30.06 in (12:50 am)
Wind Speed4.5 mph12.7 mph (12:50 pm)
Weather ElementAverage
Visibility6.1 mi
Wind DirectionESE (120.4 °)

Weather ElementTotal
Precipitation---
Heating Degree Days13.2 (Base 65)
Growing Degree Days1.8 (Base 50)
Averaged from 47 records on September 8, 2013
WEATHER CONDITIONS BREAKOUT
WIND DIRECTION BREAKOUT
WEATHER BY HOUR - SEPTEMBER 8, 2013
[ °C ]   °F
Local TimeTemperatureDewpointHumidityBarometerVisibilityWind DirectionWind SpeedGust SpeedPrecipitationEventsConditions
12:50 AM48.2 °F46.4 °F93 %30.06 inVariable2.3 mphClear
1:20 AM50.0 °F46.4 °F87 %30.06 inSE (140°)4.6 mphClear
1:50 AM48.2 °F46.4 °F93 %30.06 in6.2 miVariable2.3 mphPartly Cloudy
2:20 AM46.4 °F44.6 °F93 %30.06 in6.2 miCalmPartly Cloudy
2:50 AM46.4 °F44.6 °F93 %30.06 in6.2 miCalmPartly Cloudy
3:20 AM46.4 °F44.6 °F93 %30.06 in6.2 miCalmScattered Clouds
3:50 AM46.4 °F44.6 °F93 %30.06 in6.2 miVariable3.5 mphScattered Clouds
4:20 AM44.6 °F42.8 °F93 %30.06 in6.2 miCalmScattered Clouds
4:50 AM44.6 °F44.6 °F100 %30.06 in5.6 miEast (90°)2.3 mphFogShallow Fog
5:20 AM46.4 °F44.6 °F93 %30.06 in5.6 miVariable2.3 mphFogShallow Fog
5:50 AM44.6 °F42.8 °F93 %30.06 in6.2 miVariable2.3 mphFogPatches of Fog
6:20 AM42.8 °F41.0 °F93 %30.06 in6.2 miCalmFogPatches of Fog
6:50 AM44.6 °F42.8 °F93 %30.06 in6.2 miVariable2.3 mphFogPartly Cloudy
7:20 AM44.6 °F42.8 °F93 %30.06 in6.2 miVariable2.3 mphFogPartly Cloudy
7:50 AM46.4 °F44.6 °F93 %30.06 in6.2 miVariable2.3 mphPartly Cloudy
8:20 AM48.2 °F44.6 °F87 %30.06 in6.2 miCalmPartly Cloudy
8:50 AM51.8 °F46.4 °F82 %30.06 in6.2 miCalmPartly Cloudy
9:20 AM55.4 °F50.0 °F82 %30.06 in6.2 miVariable3.5 mphPartly Cloudy
9:50 AM57.2 °F48.2 °F72 %30.06 in6.2 miVariable2.3 mphPartly Cloudy
10:20 AM59.0 °F48.2 °F67 %30.06 in6.2 miSW (230°)5.8 mphScattered Clouds
10:50 AM60.8 °F50.0 °F68 %30.06 in6.2 miSSW (210°)4.6 mphPartly Cloudy
11:20 AM60.8 °F46.4 °F59 %30.06 in6.2 miSW (220°)10.4 mphPartly Cloudy
11:50 AM60.8 °F46.4 °F59 %30.06 in6.2 miSSW (210°)11.5 mphScattered Clouds
12:20 PM60.8 °F46.4 °F59 %30.06 in6.2 miSSW (210°)8.1 mphScattered Clouds
12:50 PM59.0 °F50.0 °F72 %30.06 in6.2 miWest (260°)12.7 mphScattered Clouds
1:20 PM60.8 °F48.2 °F63 %30.06 in6.2 miWSW (250°)11.5 mphPartly Cloudy
1:50 PM60.8 °F46.4 °F59 %30.06 in6.2 miWSW (240°)12.7 mphPartly Cloudy
2:20 PM60.8 °F44.6 °F55 %30.06 in6.2 miWSW (240°)11.5 mphRainLight Rain
2:50 PM55.4 °F50.0 °F82 %30.09 in5.6 miSSW (200°)11.5 mphRain-ThunderstormLight Rain Showers
3:20 PM53.6 °F50.0 °F88 %30.09 in6.2 miSSW (200°)8.1 mphRainLight Rain Showers
3:50 PM53.6 °F50.0 °F88 %30.09 in6.2 miSW (220°)4.6 mphScattered Clouds
4:20 PM51.8 °F48.2 °F88 %30.09 in4.3 miSSW (210°)6.9 mphRainLight Rain Showers
4:50 PM51.8 °F48.2 °F88 %30.06 in6.2 miSSE (160°)6.9 mphRainLight Rain Showers
5:20 PM53.6 °F50.0 °F88 %30.06 in6.2 miSSE (160°)6.9 mphScattered Clouds
5:50 PM55.4 °F50.0 °F82 %30.06 in6.2 miSouth (170°)4.6 mphPartly Cloudy
6:20 PM55.4 °F50.0 °F82 %30.06 in6.2 miSouth (190°)3.5 mphPartly Cloudy
6:50 PM53.6 °F50.0 °F88 %30.06 in6.2 miSouth (190°)4.6 mphPartly Cloudy
7:20 PM53.6 °F50.0 °F88 %30.06 in6.2 miSSW (200°)5.8 mphPartly Cloudy
7:50 PM51.8 °F50.0 °F94 %30.06 in6.2 miSSW (200°)3.5 mphPartly Cloudy
8:20 PM51.8 °F50.0 °F94 %30.06 in6.2 miVariable2.3 mphPartly Cloudy
8:50 PM50.0 °F48.2 °F94 %30.06 inSouth (180°)3.5 mphClear
9:20 PM50.0 °F48.2 °F94 %30.06 inCalmClear
9:50 PM48.2 °F48.2 °F100 %30.06 inSW (230°)2.3 mphClear
10:20 PM50.0 °F48.2 °F94 %30.06 inSW (220°)3.5 mphClear
10:50 PM48.2 °F48.2 °F100 %30.06 inSSW (210°)3.5 mphClear
11:20 PM48.2 °F48.2 °F100 %30.06 inSSW (210°)4.6 mphClear
11:50 PM50.0 °F48.2 °F94 %30.06 inSSW (210°)5.8 mphClear
Hourly data recorded from EGKK, located miles away from London, England







STORIES FROM OUR PARTNERS